Miscellaneous Local Product
Issued by NWS Hastings, NE

Home | Current Version | Previous Version | Graphics & Text | Print | Product List | Glossary On
Versions: 1 2 3 4 5 6 7 8 9 10 11 12 13 14 15 16 17 18 19 20 21 22 23 24 25 26 27 28 29 30 31 32 33 34 35 36 37 38 39 40 41 42 43 44 45 46 47 48 49 50
000
AXUS43 KGID 180502
MISGRI

GID CWA HOURLY WEATHER ROUNDUP
NATIONAL WEATHER SERVICE HASTINGS NE
1200 AM CDT FRI APR 18 2014

NOTE: "FAIR" INDICATES FEW OR NO CLOUDS BELOW 12,000 FEET WITH NO
SIGNIFICANT WEATHER AND/OR OBSTRUCTIONS TO VISIBILITY.

...SOUTH CENTRAL NEBRASKA...

CITY           SKY/WX    TMP DP  RH WIND       PRES   REMARKS
GRAND ISLAND   CLEAR     43  28  55 S8        30.22S
HASTINGS       PTCLDY    43  27  53 S7        30.21S
KEARNEY        CLEAR     39  28  65 S12       30.20R WCI  32
ORD            CLEAR     41  26  55 S6        30.18R
YORK           CLEAR     39  27  60 SE7       30.24S WCI  34
AURORA         CLEAR     40  28  62 SE8       30.22S WCI  34
LEXINGTON      CLEAR     42  32  69 SE9       30.17S
HOLDREGE       CLEAR     42  30  61 S12       30.19S
HEBRON         PTCLDY    39  29  67 S7        30.24F WCI  34

...NEBRASKA PANHANDLE...

CITY           SKY/WX    TMP DP  RH WIND       PRES   REMARKS
CHADRON        CLEAR     48  38  68 SE29G37   29.91F
ALLIANCE       CLEAR     44  37  76 S17       29.97F
SCOTTSBLUFF    CLEAR     43  36  76 E15       29.95F
SIDNEY         CLEAR     45  36  70 S17       30.02F

...WESTERN AND NORTH CENTRAL NEBRASKA...

CITY           SKY/WX    TMP DP  RH WIND       PRES   REMARKS
VALENTINE      PTCLDY    43  28  55 S14       30.08F
AINSWORTH      CLEAR     43  29  58 S12       30.11F
ONEILL         PTCLDY    39  22  50 SE6       30.19R WCI  35
BROKEN BOW     CLEAR     36  28  73 SE7       30.15S WCI  30
IMPERIAL       CLEAR     45  37  73 S17       30.10F
NORTH PLATTE   PTCLDY    44  31  60 SE9       30.13R
MCCOOK         CLEAR     44  36  73 S9        30.16S

...EASTERN NEBRASKA...

CITY           SKY/WX    TMP DP  RH WIND       PRES   REMARKS
NORFOLK        CLEAR     37  24  59 SE7       30.23R WCI  32
SO SIOUX CITY  CLEAR     39  26  59 E7        30.26S WCI  34
TEKAMAH        PTCLDY    35  23  61 CALM      30.26S
COLUMBUS       CLEAR     36  21  55 E3        30.25R
ALBION         CLEAR     37  25  61 SE7       30.21F WCI  31
OMAHA EPPLEY   PTCLDY    40  29  64 CALM      30.27S
OFFUTT AFB     CLEAR     33  28  82 CALM      30.26S
MILLARD        CLEAR     40  27  60 CALM      30.26S
LINCOLN        CLEAR     37  25  61 CALM      30.27S
NEBRASKA CITY  CLEAR     44  27  50 S5        30.26S
BEATRICE       CLEAR     43  28  54 SE5       30.26S
FALLS CITY     CLEAR     41  29  62 S3        30.27R

...NORTHERN KANSAS...

CITY           SKY/WX    TMP DP  RH WIND       PRES   REMARKS
GOODLAND       CLEAR     40  37  89 S20       30.14F WCI  30
HILL CITY      CLEAR     43  34  70 S7        30.21S
PHILLIPSBURG   CLEAR     39  28  65 SE6       30.22S WCI  35
SMITH CENTER   CLEAR     39  27  60 SE9       30.23S WCI  33
BELOIT         CLEAR     41  27  56 SE6       30.24S
HAYS           CLEAR     39  28  65 S6        30.23S WCI  35
RUSSELL        CLEAR     39  29  67 S8        30.23R WCI  33
CONCORDIA      PTCLDY    44  30  57 S12       30.25R
SALINA         CLEAR     39  29  67 S6        30.27S WCI  35
TOPEKA         CLEAR     40  33  76 CALM      30.29S HAZE



USA.gov is the U.S. government's official web portal to all federal, state and local government web resources and services.